Location: Stull Observatory
(42.2506°N, 77.7903°W)
Time: 05:46:22
(UTC-04:00)

Okean O Rocket - Visible Passes

Search period start: 25 August 2016 00:00
Search period end: 04 September 2016 00:00
Orbit: 624 x 645 km, 98.1° (Epoch: 25 August)

Date Brightness Start Highest point End Pass type
(mag) Time Alt. Az. Time Alt. Az. Time Alt. Az.
25 Aug 3.0 04:13:23 10° NNE 04:17:32 36° E 04:20:19 18° SSE visible
25 Aug 3.0 05:50:13 10° NNW 05:53:41 22° WNW 05:57:07 10° WSW visible
26 Aug 2.0 04:34:53 10° NNE 04:39:19 62° E 04:42:14 21° S visible
27 Aug 4.6 03:23:56 10° E 03:24:10 10° E 03:24:24 10° E visible
27 Aug 1.6 04:56:35 10° N 05:01:04 77° WNW 05:04:08 20° SSW visible
28 Aug 4.1 03:43:09 10° NE 03:46:09 17° E 03:48:36 12° SE visible
28 Aug 2.0 05:18:28 10° N 05:22:44 45° WNW 05:26:03 16° SW visible
29 Aug 3.4 04:04:10 10° NE 04:08:03 29° E 04:10:30 18° SE visible
29 Aug 2.7 05:40:34 10° N 05:44:21 27° WNW 05:47:57 11° SW visible
30 Aug 2.4 04:25:32 10° NNE 04:29:53 49° E 04:32:24 23° SSE visible
30 Aug 3.3 06:02:57 10° NNW 06:05:53 17° WNW 06:08:48 10° WSW visible
31 Aug 1.6 04:47:10 10° NNE 04:51:39 84° ESE 04:54:19 24° S visible
01 Sep 4.3 03:34:19 10° ENE 03:36:37 14° E 03:38:45 10° ESE visible
01 Sep 1.7 05:08:58 10° N 05:13:21 57° WNW 05:16:13 21° SW visible
02 Sep 3.7 03:55:00 10° NE 03:58:34 23° E 04:00:39 17° SE visible
02 Sep 2.4 05:30:57 10° N 05:34:59 34° WNW 05:38:07 15° SW visible
03 Sep 2.9 04:16:15 10° NNE 04:20:26 38° E 04:22:34 24° SSE visible
03 Sep 3.0 05:53:11 10° NNW 05:56:33 21° WNW 05:59:54 10° WSW visible
